Printer-friendly version
Follow the MPC on Twitter Follow the MPC on Facebook The MPC blog
Minor Planet Center

MPEC 2009-U11 : 2009 UE

The following Minor Planet Electronic Circular may be linked-to from your own Web pages, but must not otherwise be redistributed electronically.

A form allowing access to any MPEC is at the bottom of this page.


Read MPEC 2009-U10 Read MPEC 2009-U12


M.P.E.C. 2009-U11                                Issued 2009 Oct. 16, 18:32 UT

     The Minor Planet Electronic Circulars contain information on unusual
         minor planets and routine data on comets.  They are published
   on behalf of Commission 20 of the International Astronomical Union by the
          Minor Planet Center, Smithsonian Astrophysical Observatory,
                          Cambridge, MA 02138, U.S.A.

             Prepared using the Tamkin Foundation Computer Network

                              MPC@CFA.HARVARD.EDU
          URL http://www.cfa.harvard.edu/iau/mpc.html  ISSN 1523-6714

                                    2009 UE

Observations:
     K09U00E*QC2009 10 16.41137 20 32 18.22 -53 40 27.7          18.5 R EU011E12
     K09U00E QC2009 10 16.41772 20 32 06.57 -53 42 17.7          18.4 R EU011E12
     K09U00E QC2009 10 16.44886 20 31 08.55 -53 51 12.4          19.1 R EU011E12
     K09U00E QC2009 10 16.45851 20 30 50.47 -53 53 57.2          18.6 R EU011E12
     K09U00E QC2009 10 16.50943 20 29 15.32 -54 08 13.5          18.8 R EU011E12
     K09U00E QC2009 10 16.51221 20 29 10.12 -54 09 00.5          18.8 R EU011E12
     K09U00E QC2009 10 16.51570 20 29 03.58 -54 09 58.4          18.7 R EU011E12
     K09U00E  C2009 10 16.54753 20 28 04.62 -54 18 47.6          18.8 R EU011E10
     K09U00E  C2009 10 16.54829 20 28 03.13 -54 19 00.6          19.4 R EU011E10
     K09U00E QC2009 10 16.55609 20 27 48.83 -54 21 10.5          18.6 R EU011E12
     K09U00E QC2009 10 16.55844 20 27 44.54 -54 21 49.4          18.7 R EU011E12
     K09U00E QC2009 10 16.56216 20 27 37.75 -54 22 51.1          18.7 R EU011E12
     K09U00E QC2009 10 16.56556 20 27 31.48 -54 23 47.3          18.6 R EU011E12

Observer details:
E10 Siding Spring-Faulkes Telescope South.  Observer R. Miles.  2.0-m f/10.0
    Ritchey-Chretien + CCD.
E12 Siding Spring Survey.  Observer G. J. Garradd.  0.5-m Uppsala Schmidt
    + CCD.

Orbital elements:
2009 UE                                                  Earth MOID = 0.0063 AU
Epoch 2010 Jan. 4.0 TT = JDT 2455200.5                  MPC
M  23.94860              (2000.0)            P               Q
n   0.36864187     Peri.    9.07708     +0.76440383     -0.64401057
a   1.9263400      Node    31.08167     +0.58775182     +0.67653781
e   0.4904590      Incl.    3.39954     +0.26501808     +0.35713720
P   2.67           H   25.1           G   0.15           U   6
Residuals in seconds of arc
091016 E12  0.4-  0.2+    091016 E12  0.2+  0.0     091016 E12  0.0   0.0
091016 E12  0.5+  0.2+    091016 E12  0.2-  0.3+    091016 E12  0.3+  0.1+
091016 E12  0.1+  0.4+    091016 E10  0.2+  0.6+    091016 E12  0.1-  0.3+
091016 E12  0.3-  0.2-    091016 E10  0.6-  0.3+
091016 E12  0.3+  0.6+    091016 E12  0.2-  0.1-

Ephemeris:
2009 UE                  a,e,i = 1.93, 0.49, 3                   q = 0.9815
Date    TT    R. A. (2000) Decl.     Delta      r     Elong.  Phase     V
2009 10 16    20 41.64   -51 43.9    0.0178   0.999    94.8    84.2    19.3
2009 10 18    19 07.17   -64 15.9    0.0107   0.994    78.8   100.6    18.9
2009 10 20    12 24.29   -49 23.2    0.00690  0.991    42.1   137.7    20.8
2009 10 22    10 44.67   -04 12.7    0.0108   0.988    45.5   134.1    21.4
2009 10 24    10 20.21   +11 41.2    0.0180   0.985    58.0   121.2    21.3
2009 10 26    10 09.65   +18 14.0    0.0258   0.983    64.8   113.8    21.5

2009 10 31    09 59.29   +24 31.4    0.0459   0.982    74.5   102.9    22.1
2009 11 05    09 55.93   +26 52.2    0.0660   0.983    81.0    95.2    22.6

Sonia Keys                   (C) Copyright 2009 MPC           M.P.E.C. 2009-U11

Read MPEC 2009-U10 Read MPEC 2009-U12


MPEC number:

Enter an MPEC number in one of the following forms:

  • 1997-B01 (the full form)
  • J97B01 (the packed version of the full form)
  • B01 (the abbreviated form)

Valid HTML 4.01!